Regional Weather Roundup
Issued by NWS

Home | Current Version | Previous Version | Graphics & Text | Print | Product List | Glossary On
Versions: 1 2 3 4 5 6 7 8 9 10 11 12 13 14 15 16 17 18 19 20 21 22 23 24 25 26 27 28 29 30 31 32 33 34 35 36 37 38 39 40 41 42 43 44 45 46 47 48 49 50
000
ASUS43 KLMK 270410
RWRKY
KENTUCKY REGIONAL WEATHER ROUNDUP
NATIONAL WEATHER SERVICE LOUISVILLE KY
1200 AM EDT TUE SEP 27 2016

NOTE "FAIR" INDICATES FEW OR NO CLOUDS BELOW 12,000 FEET
WITH NO SIGNIFICANT WEATHER AND/OR OBSTRUCTIONS TO VISIBILITY.

KYZ001>023-026-027-061>063-070>075-270500-
WESTERN AND SOUTH CENTRAL KENTUCKY

CITY           SKY/WX    TMP DP  RH WIND       PRES   REMARKS
PADUCAH        CLEAR     52  50  93 SW3       30.10S
HENDERSON      CLEAR     52  46  82 SW5       30.09S
OWENSBORO      NOT AVBL
HOPKINSVILLE   CLEAR     56  54  92 CALM      30.10F
BOWLING GREEN  CLEAR     56  54  93 CALM      30.10F
GLASGOW        CLEAR    N/A N/A N/A CALM      30.11S FOG
$$

KYZ024-025-028>034-038-045-046-053-270500-
NORTH CENTRAL KENTUCKY

CITY           SKY/WX    TMP DP  RH WIND       PRES   REMARKS
LOUISVILLE/SDF PTCLDY    59  52  77 SW5       30.07F
LOUISVILLE/LOU CLEAR     57  52  83 S3        30.08F
FORT KNOX      FOG       52  52 100 SW2       30.07F VSB 3/4
$$

KYZ035>037-039>044-047>052-055>060-089>105-270500-
NORTHEAST KENTUCKY

CITY           SKY/WX    TMP DP  RH WIND       PRES   REMARKS
LEXINGTON      CLEAR     54  50  86 S6        30.09S
COVINGTON      CLEAR     55  50  83 SW6       30.05F
FRANKFORT      CLEAR     54  51  90 SW5       30.07F
$$

KYZ054-064>069-076>088-106>120-270500-
SOUTHEAST KENTUCKY

CITY           SKY/WX    TMP DP  RH WIND       PRES   REMARKS
JACKSON        PTCLDY    59  55  87 VRB3      30.09S
LONDON         PTCLDY    60  54  80 VRB5      30.10R
SOMERSET       CLEAR     55  55 100 CALM      30.11S
MIDDLESBORO    CLOUDY    68  64  84 N3        30.07S
MONTICELLO     CLOUDY    56  54  93 N8        30.12S
$$




USA.gov is the U.S. government's official web portal to all federal, state and local government web resources and services.